アッシュ彗星

P/2011 N1 ( ASH )

English version
Home page
Updated on April 13, 2014

---------------------------------------------------------------------

・ プロフィール

発見日 2011年7月1日
発見光度 19.9等
発見者 Ignacio de la Cueva (Ibiza, Spain), J. L. Ortiz, P. Santos-Sanz, N. Morales (San Pedro de Atacama, Chile)

・ 写真集

・ 軌道要素

Epoch 2012 June 2.0 TT = JDT 2456080.5
T 2012 May 31.10234 TT                                  MPC
q   2.8578789            (2000.0)            P               Q
n   0.06228820     Peri.  331.02429     +0.57116854     -0.59086505
a   6.3027808      Node    77.67629     +0.81946658     +0.37043039
e   0.5465686      Incl.   35.67699     +0.04733944     +0.71670065
P  15.8
From 259 observations 2011 July 1-2014 Mar. 21, mean residual 0".5.

・ 星図

・ 光度変化

        m1 = 10.5 + 5 logΔ + 10.0 log r(t + 170)

---------------------------------------------------------------------

軌道要素はM.P.E.C. 2014-F39に掲載されたものです。
星図はステラナビゲータ Ver.8 (アストロアーツ) で作成したものです。
光度グラフはComet for Windowsで作成したものです。

---------------------------------------------------------------------

Copyright(C) Seiichi Yoshida (comet@aerith.net). All rights reserved.